Location: LDNL
(36.4545°S, 141.6685°E)
Time: 20:20:36
(UTC+10:00)

A-11 Canister half - Pass Details

Date: 02 February 2022
Orbit: 1527 x 1682 km, 47.3° (Epoch: 20 May)

Event Time Altitude Azimuth Distance (km) Brightness Sun altitude
Rises 01:39:57 0° 258° (WSW) 4,944 11.8 -36.5°
Reaches altitude 10° 01:43:24 10° 251° (WSW) 3,950 11.3 -36.5°
Maximum altitude 01:53:00 45° 180° (S) 2,154 10.0 -36.5°
Drops below altitude 10° 02:02:23 10° 109° (ESE) 3,854 11.3 -36.4°
Sets 02:05:42 0° 102° (ESE) 4,816 11.8 -36.4°
